Time,TemperatureF,DewpointF,PressureIn,WindDirection,WindDirectionDegrees,WindSpeedMPH,WindSpeedGustMPH,Humidity,HourlyPrecipIn,Conditions,Clouds,dailyrainin,SoftwareType,DateUTC
2013-01-18 00:05:00,33.4,32.9,30.15,WSW,241,0.0,1.0,98,0.06,,,0.00,VWS V14.01,2013-01-18 05:05:00,
2013-01-18 00:10:00,33.4,32.9,30.15,West,271,0.0,1.0,98,0.06,,,0.01,VWS V14.01,2013-01-18 05:10:00,
2013-01-18 00:15:00,33.4,32.9,30.15,SW,235,0.0,1.0,98,0.06,,,0.01,VWS V14.01,2013-01-18 05:15:00,
2013-01-18 00:20:00,33.4,32.9,30.16,SW,235,0.0,0.0,98,0.05,,,0.01,VWS V14.01,2013-01-18 05:20:00,
2013-01-18 00:25:00,33.4,32.9,30.16,West,271,0.0,1.0,98,0.06,,,0.02,VWS V14.01,2013-01-18 05:25:00,
2013-01-18 00:30:00,33.4,32.9,30.16,West,269,0.0,1.0,98,0.05,,,0.02,VWS V14.01,2013-01-18 05:30:00,
2013-01-18 00:35:00,33.4,32.6,30.17,WSW,243,0.0,1.0,97,0.06,,,0.03,VWS V14.01,2013-01-18 05:35:00,
2013-01-18 00:40:00,33.3,32.8,30.17,West,262,0.0,1.0,98,0.06,,,0.04,VWS V14.01,2013-01-18 05:40:00,
2013-01-18 00:45:00,33.4,32.9,30.17,West,262,0.0,0.0,98,0.06,,,0.04,VWS V14.01,2013-01-18 05:45:00,
2013-01-18 00:50:00,33.3,32.8,30.16,West,262,0.0,0.0,98,0.06,,,0.04,VWS V14.01,2013-01-18 05:50:00,
2013-01-18 00:55:00,33.2,32.7,30.16,West,263,0.0,0.0,98,0.06,,,0.05,VWS V14.01,2013-01-18 05:55:00,
2013-01-18 01:05:00,33.2,32.7,30.15,West,264,0.0,0.0,98,0.06,,,0.06,VWS V14.01,2013-01-18 06:05:00,
2013-01-18 01:10:00,33.2,32.7,30.16,West,264,0.0,0.0,98,0.06,,,0.06,VWS V14.01,2013-01-18 06:10:00,
2013-01-18 01:20:00,33.2,32.7,30.17,West,260,0.0,0.0,98,0.06,,,0.07,VWS V14.01,2013-01-18 06:20:00,
2013-01-18 01:25:00,33.2,32.7,30.17,WSW,255,0.0,1.0,98,0.06,,,0.07,VWS V14.01,2013-01-18 06:25:00,
2013-01-18 01:30:00,33.2,32.7,30.18,West,264,0.0,2.0,98,0.05,,,0.07,VWS V14.01,2013-01-18 06:30:00,
2013-01-18 01:35:00,33.3,32.8,30.18,WNW,283,0.0,2.0,98,0.05,,,0.07,VWS V14.01,2013-01-18 06:35:00,
2013-01-18 01:40:00,33.3,32.8,30.18,WNW,283,0.0,1.0,98,0.04,,BKN060,0.07,VWS V14.01,2013-01-18 06:40:00,
2013-01-18 01:45:00,33.3,32.8,30.18,WSW,250,0.0,1.0,98,0.03,,BKN060,0.07,VWS V14.01,2013-01-18 06:45:00,
2013-01-18 01:50:00,33.4,32.9,30.19,WSW,257,0.0,1.0,98,0.03,,BKN060,0.07,VWS V14.01,2013-01-18 06:50:00,
2013-01-18 01:55:00,33.5,33.0,30.20,West,281,0.0,1.0,98,0.03,,BKN060,0.07,VWS V14.01,2013-01-18 06:55:00,
2013-01-18 02:00:00,33.6,33.1,30.21,West,279,0.0,2.0,98,0.02,,BKN020,0.07,VWS V14.01,2013-01-18 07:00:00,
2013-01-18 02:05:00,33.6,33.1,30.21,WNW,285,1.0,2.0,98,0.03,,BKN020,0.08,VWS V14.01,2013-01-18 07:05:00,
2013-01-18 02:10:00,33.6,33.1,30.21,West,281,0.0,1.0,98,0.02,,BKN020,0.08,VWS V14.01,2013-01-18 07:10:00,
2013-01-18 02:15:00,33.7,33.2,30.21,SW,236,0.0,1.0,98,0.02,,BKN020,0.08,VWS V14.01,2013-01-18 07:15:00,
2013-01-18 02:20:00,33.7,33.2,30.21,WSW,237,0.0,1.0,98,0.02,,BKN020,0.08,VWS V14.01,2013-01-18 07:20:00,
2013-01-18 02:25:00,33.7,33.2,30.22,NW,312,0.0,1.0,98,0.01,,SCT028,0.08,VWS V14.01,2013-01-18 07:25:00,
2013-01-18 02:30:00,33.8,33.3,30.21,West,274,0.0,1.0,98,0.01,,SCT028,0.08,VWS V14.01,2013-01-18 07:30:00,
2013-01-18 02:35:00,33.7,33.2,30.21,West,274,0.0,0.0,98,0.02,,SCT028,0.09,VWS V14.01,2013-01-18 07:35:00,
2013-01-18 02:40:00,33.8,33.3,30.21,SW,231,0.0,1.0,98,0.02,,SCT028,0.09,VWS V14.01,2013-01-18 07:40:00,
2013-01-18 02:45:00,33.8,33.3,30.21,SW,231,0.0,0.0,98,0.02,,SCT028,0.09,VWS V14.01,2013-01-18 07:45:00,
2013-01-18 02:50:00,33.8,33.3,30.22,WSW,248,0.0,1.0,98,0.02,,SCT028,0.09,VWS V14.01,2013-01-18 07:50:00,
2013-01-18 02:55:00,33.9,33.4,30.22,West,277,0.0,1.0,98,0.02,,SCT028,0.09,VWS V14.01,2013-01-18 07:55:00,
2013-01-18 03:00:00,33.9,33.4,30.22,WSW,256,0.0,1.0,98,0.02,,SCT040,0.09,VWS V14.01,2013-01-18 08:00:00,
2013-01-18 03:05:00,33.9,33.4,30.22,West,264,0.0,1.0,98,0.03,,SCT040,0.10,VWS V14.01,2013-01-18 08:05:00,
2013-01-18 03:10:00,33.9,33.4,30.22,West,265,0.0,1.0,98,0.02,,SCT040,0.10,VWS V14.01,2013-01-18 08:10:00,
2013-01-18 03:15:00,33.8,33.3,30.22,West,264,0.0,1.0,98,0.02,,SCT040,0.10,VWS V14.01,2013-01-18 08:15:00,
2013-01-18 03:20:00,33.8,33.3,30.22,WNW,295,0.0,1.0,98,0.02,,SCT040,0.10,VWS V14.01,2013-01-18 08:20:00,
2013-01-18 03:25:00,33.8,33.3,30.23,WSW,248,0.0,1.0,98,0.02,,SCT040,0.10,VWS V14.01,2013-01-18 08:25:00,
2013-01-18 03:30:00,33.8,33.3,30.23,WSW,255,0.0,1.0,98,0.02,,SCT040,0.10,VWS V14.01,2013-01-18 08:30:00,
2013-01-18 03:35:00,33.9,33.4,30.23,West,259,1.0,1.0,98,0.02,,SCT040,0.10,VWS V14.01,2013-01-18 08:35:00,
2013-01-18 03:40:00,33.9,33.4,30.23,West,275,0.0,1.0,98,0.01,,SCT040,0.10,VWS V14.01,2013-01-18 08:40:00,
2013-01-18 03:45:00,33.9,33.4,30.23,West,274,0.0,0.0,98,0.02,,SCT040,0.11,VWS V14.01,2013-01-18 08:45:00,
2013-01-18 03:50:00,33.8,33.3,30.24,West,262,1.0,1.0,98,0.02,,SCT040,0.11,VWS V14.01,2013-01-18 08:50:00,
2013-01-18 03:55:00,33.8,33.3,30.24,West,263,0.0,1.0,98,0.02,,SCT040,0.11,VWS V14.01,2013-01-18 08:55:00,
2013-01-18 04:00:00,33.8,33.3,30.24,WSW,249,0.0,1.0,98,0.02,,FEW003,0.11,VWS V14.01,2013-01-18 09:00:00,
2013-01-18 04:05:00,33.7,33.2,30.24,West,276,0.0,1.0,98,0.02,,FEW003,0.11,VWS V14.01,2013-01-18 09:05:00,
2013-01-18 04:10:00,33.7,33.2,30.24,West,276,0.0,0.0,98,0.01,,FEW003,0.11,VWS V14.01,2013-01-18 09:10:00,
2013-01-18 04:15:00,33.7,33.2,30.24,West,276,0.0,0.0,98,0.01,,FEW003,0.11,VWS V14.01,2013-01-18 09:15:00,
2013-01-18 04:20:00,33.7,33.2,30.24,West,271,0.0,1.0,98,0.01,,FEW003,0.11,VWS V14.01,2013-01-18 09:20:00,
2013-01-18 04:25:00,33.7,33.2,30.25,West,269,0.0,1.0,98,0.01,,FEW003,0.11,VWS V14.01,2013-01-18 09:25:00,
2013-01-18 04:30:00,33.7,33.2,30.25,West,269,0.0,1.0,98,0.01,,FEW003,0.11,VWS V14.01,2013-01-18 09:30:00,
2013-01-18 04:35:00,33.7,33.2,30.26,SW,224,0.0,2.0,98,0.02,,FEW003,0.12,VWS V14.01,2013-01-18 09:35:00,
2013-01-18 04:40:00,33.7,33.2,30.26,West,275,0.0,1.0,98,0.02,,FEW003,0.12,VWS V14.01,2013-01-18 09:40:00,
2013-01-18 04:45:00,33.7,33.2,30.26,West,261,0.0,1.0,98,0.02,,FEW003,0.12,VWS V14.01,2013-01-18 09:45:00,
2013-01-18 04:50:00,33.7,33.2,30.26,West,262,0.0,1.0,98,0.01,,FEW003,0.12,VWS V14.01,2013-01-18 09:50:00,
2013-01-18 04:55:00,33.6,33.1,30.27,West,262,0.0,1.0,98,0.01,,FEW003,0.12,VWS V14.01,2013-01-18 09:55:00,
2013-01-18 05:05:00,33.3,32.5,30.27,West,277,0.0,1.0,97,0.01,,CLR,0.12,VWS V14.01,2013-01-18 10:05:00,
2013-01-18 05:10:00,33.2,32.4,30.27,West,277,0.0,0.0,97,0.01,,CLR,0.12,VWS V14.01,2013-01-18 10:10:00,
2013-01-18 05:15:00,33.1,32.3,30.27,West,277,0.0,0.0,97,0.01,,CLR,0.12,VWS V14.01,2013-01-18 10:15:00,
2013-01-18 05:20:00,32.9,32.1,30.28,West,276,0.0,0.0,97,0.01,,CLR,0.12,VWS V14.01,2013-01-18 10:20:00,
2013-01-18 05:25:00,32.9,32.1,30.28,West,276,0.0,0.0,97,0.01,,CLR,0.12,VWS V14.01,2013-01-18 10:25:00,
2013-01-18 05:30:00,32.7,31.9,30.28,West,277,0.0,0.0,97,0.01,,CLR,0.12,VWS V14.01,2013-01-18 10:30:00,
2013-01-18 05:35:00,32.5,31.7,30.28,West,277,0.0,0.0,97,0.01,,CLR,0.12,VWS V14.01,2013-01-18 10:35:00,
2013-01-18 05:40:00,32.4,31.6,30.29,West,277,0.0,0.0,97,0.00,,CLR,0.12,VWS V14.01,2013-01-18 10:40:00,
2013-01-18 05:45:00,32.3,31.5,30.29,West,277,0.0,0.0,97,0.00,,CLR,0.12,VWS V14.01,2013-01-18 10:45:00,
2013-01-18 05:50:00,32.2,31.7,30.29,West,277,0.0,0.0,98,0.00,,CLR,0.12,VWS V14.01,2013-01-18 10:50:00,
2013-01-18 06:00:00,32.0,31.5,30.30,West,277,0.0,0.0,98,0.00,,CLR,0.12,VWS V14.01,2013-01-18 11:00:00,
2013-01-18 06:05:00,31.9,31.4,30.30,West,277,0.0,0.0,98,0.00,,CLR,0.12,VWS V14.01,2013-01-18 11:05:00,
2013-01-18 06:10:00,31.7,31.2,30.30,West,277,0.0,0.0,98,0.00,,CLR,0.12,VWS V14.01,2013-01-18 11:10:00,
2013-01-18 06:15:00,31.6,31.1,30.31,West,277,0.0,0.0,98,0.00,,CLR,0.12,VWS V14.01,2013-01-18 11:15:00,
2013-01-18 06:20:00,31.6,31.1,30.31,West,276,0.0,0.0,98,0.00,,CLR,0.12,VWS V14.01,2013-01-18 11:20:00,
2013-01-18 06:25:00,31.6,31.1,30.31,West,276,0.0,0.0,98,0.00,,CLR,0.12,VWS V14.01,2013-01-18 11:25:00,
2013-01-18 06:30:00,31.6,31.1,30.31,West,271,0.0,1.0,98,0.00,,CLR,0.12,VWS V14.01,2013-01-18 11:30:00,
2013-01-18 06:35:00,31.5,31.0,30.31,West,271,0.0,0.0,98,0.00,,CLR,0.12,VWS V14.01,2013-01-18 11:35:00,
2013-01-18 06:40:00,31.3,30.8,30.31,West,271,0.0,0.0,98,0.00,,CLR,0.12,VWS V14.01,2013-01-18 11:40:00,
2013-01-18 06:45:00,31.2,30.7,30.31,West,271,0.0,0.0,98,0.00,,CLR,0.12,VWS V14.01,2013-01-18 11:45:00,
2013-01-18 06:50:00,31.2,30.7,30.32,West,271,0.0,0.0,98,0.00,,CLR,0.12,VWS V14.01,2013-01-18 11:50:00,
2013-01-18 06:55:00,31.1,30.6,30.32,West,271,0.0,0.0,98,0.00,,CLR,0.12,VWS V14.01,2013-01-18 11:55:00,
2013-01-18 07:00:00,31.1,30.6,30.33,West,271,0.0,0.0,98,0.00,,CLR,0.12,VWS V14.01,2013-01-18 12:00:00,
2013-01-18 07:05:00,31.0,30.5,30.33,West,271,0.0,0.0,98,0.00,,CLR,0.12,VWS V14.01,2013-01-18 12:05:00,
2013-01-18 07:10:00,30.9,30.4,30.33,West,271,0.0,0.0,98,0.00,,CLR,0.12,VWS V14.01,2013-01-18 12:10:00,
2013-01-18 07:15:00,30.9,30.4,30.33,SW,236,0.0,0.0,98,0.00,,CLR,0.12,VWS V14.01,2013-01-18 12:15:00,
2013-01-18 07:20:00,31.0,30.5,30.33,SE,130,0.0,0.0,98,0.00,,CLR,0.12,VWS V14.01,2013-01-18 12:20:00,
2013-01-18 07:25:00,31.0,30.5,30.34,SE,130,0.0,0.0,98,0.00,,CLR,0.12,VWS V14.01,2013-01-18 12:25:00,
2013-01-18 07:30:00,31.0,30.5,30.35,SE,130,0.0,0.0,98,0.00,,CLR,0.12,VWS V14.01,2013-01-18 12:30:00,
2013-01-18 07:35:00,30.9,30.4,30.35,SE,130,0.0,0.0,98,0.00,,CLR,0.12,VWS V14.01,2013-01-18 12:35:00,
2013-01-18 07:40:00,30.9,30.4,30.35,SE,130,0.0,0.0,98,0.00,,CLR,0.12,VWS V14.01,2013-01-18 12:40:00,
2013-01-18 07:45:00,31.1,30.6,30.35,NW,321,0.0,1.0,98,0.00,,CLR,0.12,VWS V14.01,2013-01-18 12:45:00,
2013-01-18 07:50:00,31.4,30.9,30.36,NW,321,0.0,0.0,98,0.00,,CLR,0.12,VWS V14.01,2013-01-18 12:50:00,
2013-01-18 07:55:00,31.6,31.1,30.36,NW,321,0.0,0.0,98,0.00,,CLR,0.12,VWS V14.01,2013-01-18 12:55:00,
2013-01-18 08:00:00,31.7,31.2,30.36,NW,321,0.0,0.0,98,0.00,,CLR,0.12,VWS V14.01,2013-01-18 13:00:00,
2013-01-18 08:05:00,31.9,31.4,30.37,West,264,0.0,1.0,98,0.00,,CLR,0.12,VWS V14.01,2013-01-18 13:05:00,
2013-01-18 08:10:00,32.1,31.4,30.37,West,264,0.0,1.0,97,0.00,,CLR,0.12,VWS V14.01,2013-01-18 13:10:00,
2013-01-18 08:15:00,32.4,31.6,30.37,West,265,0.0,1.0,97,0.00,,CLR,0.12,VWS V14.01,2013-01-18 13:15:00,
2013-01-18 08:20:00,32.6,31.6,30.38,WSW,251,0.0,3.0,96,0.00,,CLR,0.12,VWS V14.01,2013-01-18 13:20:00,
2013-01-18 08:25:00,32.9,31.6,30.38,WSW,257,0.0,1.0,95,0.00,,CLR,0.12,VWS V14.01,2013-01-18 13:25:00,
2013-01-18 08:30:00,33.2,31.7,30.39,West,278,0.0,1.0,94,0.00,,CLR,0.12,VWS V14.01,2013-01-18 13:30:00,
2013-01-18 08:35:00,33.7,31.9,30.39,WNW,288,0.0,3.0,93,0.00,,CLR,0.12,VWS V14.01,2013-01-18 13:35:00,
2013-01-18 08:40:00,33.9,32.1,30.39,WNW,283,0.0,5.0,93,0.00,,CLR,0.12,VWS V14.01,2013-01-18 13:40:00,
2013-01-18 08:45:00,34.1,31.8,30.40,WNW,282,0.0,2.0,91,0.00,,CLR,0.12,VWS V14.01,2013-01-18 13:45:00,
2013-01-18 08:50:00,34.3,32.0,30.40,WNW,285,0.0,1.0,91,0.00,,CLR,0.12,VWS V14.01,2013-01-18 13:50:00,
2013-01-18 08:55:00,34.5,32.4,30.41,WSW,243,0.0,2.0,92,0.00,,CLR,0.12,VWS V14.01,2013-01-18 13:55:00,
2013-01-18 09:00:00,34.7,32.3,30.42,WNW,283,0.0,4.0,91,0.00,,CLR,0.12,VWS V14.01,2013-01-18 14:00:00,
2013-01-18 09:05:00,34.9,32.5,30.42,WNW,287,0.0,2.0,91,0.01,,CLR,0.13,VWS V14.01,2013-01-18 14:05:00,
2013-01-18 09:10:00,35.1,32.7,30.43,West,269,0.0,2.0,91,0.01,,CLR,0.13,VWS V14.01,2013-01-18 14:10:00,
2013-01-18 09:15:00,35.5,32.6,30.43,NW,304,0.0,1.0,89,0.01,,CLR,0.13,VWS V14.01,2013-01-18 14:15:00,
2013-01-18 09:20:00,35.9,32.7,30.43,WNW,288,0.0,2.0,88,0.01,,CLR,0.13,VWS V14.01,2013-01-18 14:20:00,
2013-01-18 09:25:00,36.1,33.2,30.44,NW,306,0.0,1.0,89,0.01,,CLR,0.13,VWS V14.01,2013-01-18 14:25:00,
2013-01-18 09:30:00,36.4,32.9,30.44,WNW,302,0.0,1.0,87,0.01,,CLR,0.13,VWS V14.01,2013-01-18 14:30:00,
2013-01-18 09:35:00,36.9,33.7,30.45,WSW,242,0.0,1.0,88,0.01,,CLR,0.13,VWS V14.01,2013-01-18 14:35:00,
2013-01-18 09:40:00,37.6,34.1,30.45,SW,224,0.0,1.0,87,0.01,,CLR,0.13,VWS V14.01,2013-01-18 14:40:00,
2013-01-18 09:45:00,38.1,34.3,30.45,West,280,1.0,1.0,86,0.02,,CLR,0.14,VWS V14.01,2013-01-18 14:45:00,
2013-01-18 09:50:00,38.7,33.7,30.45,West,280,1.0,2.0,82,0.02,,CLR,0.14,VWS V14.01,2013-01-18 14:50:00,
2013-01-18 09:55:00,39.2,34.5,30.45,WSW,243,2.0,7.0,83,0.03,,CLR,0.15,VWS V14.01,2013-01-18 14:55:00,
2013-01-18 10:00:00,39.5,34.2,30.46,WNW,284,0.0,4.0,81,0.03,,CLR,0.15,VWS V14.01,2013-01-18 15:00:00,
2013-01-18 10:05:00,39.9,34.2,30.46,WNW,284,0.0,4.0,80,0.04,,CLR,0.16,VWS V14.01,2013-01-18 15:05:00,
2013-01-18 10:10:00,40.6,34.9,30.47,WNW,287,0.0,1.0,80,0.03,,CLR,0.16,VWS V14.01,2013-01-18 15:10:00,
2013-01-18 10:15:00,41.0,34.3,30.47,WNW,285,2.0,4.0,77,0.04,,CLR,0.17,VWS V14.01,2013-01-18 15:15:00,
2013-01-18 10:20:00,41.2,34.2,30.47,WNW,283,0.0,2.0,76,0.05,,CLR,0.18,VWS V14.01,2013-01-18 15:20:00,
2013-01-18 10:25:00,41.5,34.5,30.47,NNE,20,0.0,2.0,76,0.05,,CLR,0.18,VWS V14.01,2013-01-18 15:25:00,
2013-01-18 10:30:00,41.8,34.1,30.47,WSW,255,0.0,1.0,74,0.06,,CLR,0.19,VWS V14.01,2013-01-18 15:30:00,
2013-01-18 10:35:00,42.3,33.9,30.47,WNW,300,0.0,1.0,72,0.06,,CLR,0.19,VWS V14.01,2013-01-18 15:35:00,
2013-01-18 10:40:00,42.3,33.6,30.47,WNW,294,0.0,1.0,71,0.07,,CLR,0.20,VWS V14.01,2013-01-18 15:40:00,
2013-01-18 10:45:00,42.5,34.5,30.47,WNW,292,1.0,3.0,73,0.07,,CLR,0.20,VWS V14.01,2013-01-18 15:45:00,
2013-01-18 10:50:00,42.7,34.3,30.47,West,266,3.0,3.0,72,0.07,,CLR,0.21,VWS V14.01,2013-01-18 15:50:00,
2013-01-18 10:55:00,43.2,35.1,30.47,West,277,0.0,3.0,73,0.07,,CLR,0.21,VWS V14.01,2013-01-18 15:55:00,
2013-01-18 11:00:00,43.4,33.9,30.47,NW,307,0.0,3.0,69,0.07,,CLR,0.22,VWS V14.01,2013-01-18 16:00:00,
2013-01-18 11:05:00,43.7,34.2,30.47,WNW,300,1.0,1.0,69,0.08,,CLR,0.23,VWS V14.01,2013-01-18 16:05:00,
2013-01-18 11:10:00,43.4,33.2,30.47,WNW,296,0.0,2.0,67,0.07,,CLR,0.23,VWS V14.01,2013-01-18 16:10:00,
2013-01-18 11:15:00,43.8,34.3,30.47,NNE,14,3.0,3.0,69,0.08,,CLR,0.24,VWS V14.01,2013-01-18 16:15:00,
2013-01-18 11:20:00,43.8,32.4,30.47,WNW,302,0.0,3.0,64,0.07,,CLR,0.24,VWS V14.01,2013-01-18 16:20:00,
2013-01-18 11:25:00,44.1,32.7,30.47,NW,306,1.0,3.0,64,0.07,,CLR,0.25,VWS V14.01,2013-01-18 16:25:00,
2013-01-18 11:30:00,44.3,32.5,30.47,North,350,0.0,1.0,63,0.07,,CLR,0.25,VWS V14.01,2013-01-18 16:30:00,
2013-01-18 11:35:00,44.3,31.7,30.47,North,360,0.0,1.0,61,0.07,,CLR,0.26,VWS V14.01,2013-01-18 16:35:00,
2013-01-18 11:40:00,44.3,30.9,30.47,NW,307,0.0,3.0,59,0.07,,CLR,0.26,VWS V14.01,2013-01-18 16:40:00,
2013-01-18 11:45:00,44.3,30.9,30.47,North,2,0.0,3.0,59,0.06,,CLR,0.26,VWS V14.01,2013-01-18 16:45:00,
2013-01-18 11:50:00,44.6,31.2,30.46,NW,319,0.0,1.0,59,0.07,,CLR,0.27,VWS V14.01,2013-01-18 16:50:00,
2013-01-18 11:55:00,44.5,30.7,30.46,North,9,2.0,2.0,58,0.06,,CLR,0.27,VWS V14.01,2013-01-18 16:55:00,
2013-01-18 12:00:00,44.4,30.6,30.46,NW,316,0.0,2.0,58,0.06,,CLR,0.27,VWS V14.01,2013-01-18 17:00:00,
2013-01-18 12:05:00,44.4,30.6,30.46,NW,305,0.0,3.0,58,0.06,,CLR,0.28,VWS V14.01,2013-01-18 17:05:00,
2013-01-18 12:10:00,44.6,30.3,30.46,North,7,1.0,3.0,57,0.05,,CLR,0.28,VWS V14.01,2013-01-18 17:10:00,
2013-01-18 12:15:00,44.9,31.0,30.45,NNE,22,0.0,2.0,58,0.05,,CLR,0.28,VWS V14.01,2013-01-18 17:15:00,
2013-01-18 12:25:00,46.0,31.2,30.45,NW,323,0.0,1.0,56,0.05,,CLR,0.29,VWS V14.01,2013-01-18 17:25:00,
2013-01-18 12:30:00,46.2,29.1,30.45,NNE,13,0.0,2.0,51,0.04,,CLR,0.29,VWS V14.01,2013-01-18 17:30:00,
2013-01-18 12:40:00,45.9,31.1,30.45,NNW,333,0.0,1.0,56,0.03,,CLR,0.29,VWS V14.01,2013-01-18 17:40:00,
2013-01-18 12:50:00,46.2,31.8,30.45,NW,316,0.0,4.0,57,0.04,,CLR,0.30,VWS V14.01,2013-01-18 17:50:00,
2013-01-18 12:55:00,46.0,31.6,30.45,WSW,238,2.0,7.0,57,0.03,,CLR,0.30,VWS V14.01,2013-01-18 17:55:00,
2013-01-18 13:00:00,46.3,31.9,30.45,NW,310,0.0,2.0,57,0.03,,CLR,0.30,VWS V14.01,2013-01-18 18:00:00,
2013-01-18 13:05:00,46.4,31.6,30.45,West,281,1.0,5.0,56,0.03,,CLR,0.30,VWS V14.01,2013-01-18 18:05:00,
2013-01-18 13:10:00,46.4,31.1,30.45,NW,312,0.0,6.0,55,0.02,,CLR,0.30,VWS V14.01,2013-01-18 18:10:00,
2013-01-18 13:15:00,46.7,28.1,30.45,North,8,1.0,2.0,48,0.02,,CLR,0.30,VWS V14.01,2013-01-18 18:15:00,
2013-01-18 13:20:00,46.5,26.9,30.45,WNW,282,0.0,2.0,46,0.02,,CLR,0.30,VWS V14.01,2013-01-18 18:20:00,
2013-01-18 13:25:00,46.6,27.5,30.45,NE,34,0.0,2.0,47,0.02,,CLR,0.30,VWS V14.01,2013-01-18 18:25:00,
2013-01-18 13:30:00,46.8,28.2,30.45,SSE,158,0.0,1.0,48,0.01,,CLR,0.30,VWS V14.01,2013-01-18 18:30:00,
2013-01-18 13:35:00,47.3,27.6,30.45,West,277,0.0,1.0,46,0.01,,CLR,0.30,VWS V14.01,2013-01-18 18:35:00,
2013-01-18 13:40:00,47.4,27.7,30.45,WNW,294,0.0,2.0,46,0.01,,CLR,0.30,VWS V14.01,2013-01-18 18:40:00,
2013-01-18 13:45:00,47.6,28.4,30.46,West,272,0.0,2.0,47,0.01,,CLR,0.30,VWS V14.01,2013-01-18 18:45:00,
2013-01-18 13:50:00,47.9,29.2,30.46,WNW,282,0.0,2.0,48,0.01,,CLR,0.30,VWS V14.01,2013-01-18 18:50:00,
2013-01-18 13:55:00,47.6,27.3,30.46,WNW,298,1.0,3.0,45,0.00,,CLR,0.30,VWS V14.01,2013-01-18 18:55:00,
2013-01-18 14:00:00,47.4,27.1,30.46,NW,311,0.0,2.0,45,0.00,,CLR,0.30,VWS V14.01,2013-01-18 19:00:00,
2013-01-18 14:05:00,47.3,25.4,30.46,NE,43,2.0,2.0,42,0.00,,CLR,0.30,VWS V14.01,2013-01-18 19:05:00,
2013-01-18 14:10:00,47.5,26.1,30.46,WNW,297,0.0,2.0,43,0.00,,CLR,0.30,VWS V14.01,2013-01-18 19:10:00,
2013-01-18 14:15:00,48.1,26.1,30.46,NE,41,0.0,1.0,42,0.00,,CLR,0.30,VWS V14.01,2013-01-18 19:15:00,
2013-01-18 14:20:00,48.0,26.6,30.46,NE,38,1.0,1.0,43,0.00,,CLR,0.30,VWS V14.01,2013-01-18 19:20:00,
2013-01-18 14:25:00,47.7,24.0,30.46,West,276,0.0,2.0,39,0.00,,CLR,0.30,VWS V14.01,2013-01-18 19:25:00,
2013-01-18 14:30:00,48.0,26.0,30.47,NW,317,1.0,1.0,42,0.00,,CLR,0.30,VWS V14.01,2013-01-18 19:30:00,
2013-01-18 14:35:00,47.6,25.1,30.46,WNW,298,0.0,2.0,41,0.00,,CLR,0.30,VWS V14.01,2013-01-18 19:35:00,
2013-01-18 14:45:00,47.3,23.6,30.47,NNE,30,0.0,1.0,39,0.00,,CLR,0.30,VWS V14.01,2013-01-18 19:45:00,
2013-01-18 14:50:00,47.7,23.4,30.47,WSW,245,3.0,3.0,38,0.00,,CLR,0.30,VWS V14.01,2013-01-18 19:50:00,
2013-01-18 15:00:00,46.9,22.6,30.47,WSW,245,0.0,1.0,38,0.00,,CLR,0.30,VWS V14.01,2013-01-18 20:00:00,
2013-01-18 15:05:00,47.1,24.0,30.47,WNW,294,0.0,1.0,40,0.00,,CLR,0.30,VWS V14.01,2013-01-18 20:05:00,
2013-01-18 15:10:00,47.1,22.8,30.47,North,356,0.0,1.0,38,0.00,,CLR,0.30,VWS V14.01,2013-01-18 20:10:00,
2013-01-18 15:15:00,47.1,23.4,30.47,NNW,347,1.0,2.0,39,0.00,,CLR,0.30,VWS V14.01,2013-01-18 20:15:00,
2013-01-18 15:20:00,47.0,23.3,30.47,North,352,1.0,2.0,39,0.00,,CLR,0.30,VWS V14.01,2013-01-18 20:20:00,
2013-01-18 15:25:00,46.7,22.5,30.47,North,359,0.0,3.0,38,0.00,,CLR,0.30,VWS V14.01,2013-01-18 20:25:00,
2013-01-18 15:30:00,46.9,24.5,30.46,North,4,0.0,0.0,41,0.00,,CLR,0.30,VWS V14.01,2013-01-18 20:30:00,
2013-01-18 15:35:00,46.8,24.4,30.47,WNW,302,0.0,3.0,41,0.00,,CLR,0.30,VWS V14.01,2013-01-18 20:35:00,
2013-01-18 15:40:00,46.7,24.3,30.47,North,7,0.0,2.0,41,0.00,,CLR,0.30,VWS V14.01,2013-01-18 20:40:00,
2013-01-18 15:45:00,46.6,25.9,30.47,WNW,297,0.0,2.0,44,0.00,,CLR,0.30,VWS V14.01,2013-01-18 20:45:00,
2013-01-18 15:55:00,46.2,23.8,30.47,NW,307,0.0,1.0,41,0.00,,CLR,0.30,VWS V14.01,2013-01-18 20:55:00,
2013-01-18 16:00:00,46.0,24.8,30.47,NW,305,0.0,0.0,43,0.00,,CLR,0.30,VWS V14.01,2013-01-18 21:00:00,
2013-01-18 16:05:00,45.9,25.2,30.47,NE,51,0.0,2.0,44,0.00,,CLR,0.30,VWS V14.01,2013-01-18 21:05:00,
2013-01-18 16:10:00,45.7,23.9,30.47,NNE,17,1.0,2.0,42,0.00,,CLR,0.30,VWS V14.01,2013-01-18 21:10:00,
2013-01-18 16:15:00,45.4,24.8,30.48,NNW,338,0.0,3.0,44,0.00,,CLR,0.30,VWS V14.01,2013-01-18 21:15:00,
2013-01-18 16:20:00,45.3,23.6,30.48,WNW,288,0.0,1.0,42,0.00,,CLR,0.30,VWS V14.01,2013-01-18 21:20:00,
2013-01-18 16:25:00,45.3,24.1,30.48,NW,324,0.0,1.0,43,0.00,,CLR,0.30,VWS V14.01,2013-01-18 21:25:00,
2013-01-18 16:30:00,45.1,24.5,30.48,West,281,0.0,1.0,44,0.00,,CLR,0.30,VWS V14.01,2013-01-18 21:30:00,
2013-01-18 16:35:00,45.1,24.5,30.48,WNW,289,0.0,1.0,44,0.00,,CLR,0.30,VWS V14.01,2013-01-18 21:35:00,
2013-01-18 16:40:00,44.9,23.2,30.48,WNW,289,0.0,1.0,42,0.00,,CLR,0.30,VWS V14.01,2013-01-18 21:40:00,
2013-01-18 16:50:00,44.7,25.2,30.49,WNW,290,0.0,0.0,46,0.00,,CLR,0.30,VWS V14.01,2013-01-18 21:50:00,
2013-01-18 16:55:00,44.8,24.2,30.49,WNW,290,0.0,0.0,44,0.00,,CLR,0.30,VWS V14.01,2013-01-18 21:55:00,
2013-01-18 17:00:00,44.7,25.2,30.49,WNW,290,0.0,1.0,46,0.00,,CLR,0.30,VWS V14.01,2013-01-18 22:00:00,
2013-01-18 17:05:00,44.3,24.8,30.49,WNW,290,0.0,0.0,46,0.00,,CLR,0.30,VWS V14.01,2013-01-18 22:05:00,
2013-01-18 17:10:00,43.9,25.0,30.49,WNW,290,0.0,0.0,47,0.00,,CLR,0.30,VWS V14.01,2013-01-18 22:10:00,
2013-01-18 17:15:00,43.5,28.4,30.50,WNW,290,0.0,0.0,55,0.00,,CLR,0.30,VWS V14.01,2013-01-18 22:15:00,
2013-01-18 17:20:00,43.0,29.2,30.50,WNW,290,0.0,0.0,58,0.00,,CLR,0.30,VWS V14.01,2013-01-18 22:20:00,
2013-01-18 17:25:00,42.3,31.4,30.50,WNW,290,0.0,0.0,65,0.00,,CLR,0.30,VWS V14.01,2013-01-18 22:25:00,
2013-01-18 17:35:00,40.9,31.5,30.50,WNW,290,0.0,0.0,69,0.00,,CLR,0.30,VWS V14.01,2013-01-18 22:35:00,
2013-01-18 17:40:00,40.0,31.7,30.51,WNW,290,0.0,1.0,72,0.00,,CLR,0.30,VWS V14.01,2013-01-18 22:40:00,
2013-01-18 17:45:00,39.3,32.0,30.51,WNW,290,0.0,0.0,75,0.00,,CLR,0.30,VWS V14.01,2013-01-18 22:45:00,
2013-01-18 17:50:00,38.7,32.4,30.51,WNW,290,0.0,0.0,78,0.00,,CLR,0.30,VWS V14.01,2013-01-18 22:50:00,
2013-01-18 17:55:00,38.1,31.9,30.52,WNW,290,0.0,0.0,78,0.00,,CLR,0.30,VWS V14.01,2013-01-18 22:55:00,
2013-01-18 18:00:00,37.7,32.1,30.51,WNW,290,0.0,0.0,80,0.00,,CLR,0.30,VWS V14.01,2013-01-18 23:00:00,
2013-01-18 18:05:00,37.2,32.2,30.52,WNW,290,0.0,0.0,82,0.00,,CLR,0.30,VWS V14.01,2013-01-18 23:05:00,
2013-01-18 18:10:00,36.7,32.0,30.52,WNW,290,0.0,0.0,83,0.00,,CLR,0.30,VWS V14.01,2013-01-18 23:10:00,
2013-01-18 18:15:00,36.1,31.1,30.52,WNW,290,0.0,0.0,82,0.00,,CLR,0.30,VWS V14.01,2013-01-18 23:15:00,
2013-01-18 18:20:00,35.5,31.5,30.53,WNW,291,0.0,0.0,85,0.00,,CLR,0.30,VWS V14.01,2013-01-18 23:20:00,
2013-01-18 18:25:00,35.2,30.9,30.52,WNW,290,0.0,0.0,84,0.00,,CLR,0.30,VWS V14.01,2013-01-18 23:25:00,
2013-01-18 18:35:00,34.5,30.5,30.53,WNW,290,0.0,0.0,85,0.00,,CLR,0.30,VWS V14.01,2013-01-18 23:35:00,
2013-01-18 18:40:00,34.2,30.7,30.53,WNW,290,0.0,0.0,87,0.00,,CLR,0.30,VWS V14.01,2013-01-18 23:40:00,
2013-01-18 18:45:00,33.7,30.2,30.53,WNW,292,0.0,0.0,87,0.00,,CLR,0.30,VWS V14.01,2013-01-18 23:45:00,
2013-01-18 18:50:00,33.3,29.9,30.53,WNW,291,0.0,0.0,87,0.00,,CLR,0.30,VWS V14.01,2013-01-18 23:50:00,
2013-01-18 18:55:00,33.1,29.7,30.53,WNW,298,0.0,0.0,87,0.00,,CLR,0.30,VWS V14.01,2013-01-18 23:55:00,
2013-01-18 19:00:00,32.9,29.7,30.53,WNW,298,0.0,0.0,88,0.00,,CLR,0.30,VWS V14.01,2013-01-19 00:00:00,
2013-01-18 19:05:00,32.7,29.8,30.53,NNW,345,0.0,0.0,89,0.00,,CLR,0.30,VWS V14.01,2013-01-19 00:05:00,
2013-01-18 19:10:00,32.4,29.2,30.53,NNW,345,0.0,0.0,88,0.00,,CLR,0.30,VWS V14.01,2013-01-19 00:10:00,
2013-01-18 19:15:00,32.2,29.3,30.54,NE,52,0.0,0.0,89,0.00,,CLR,0.30,VWS V14.01,2013-01-19 00:15:00,
2013-01-18 19:20:00,31.8,28.9,30.53,ENE,58,0.0,0.0,89,0.00,,CLR,0.30,VWS V14.01,2013-01-19 00:20:00,
2013-01-18 19:25:00,31.7,29.1,30.54,East,84,0.0,0.0,90,0.00,,CLR,0.30,VWS V14.01,2013-01-19 00:25:00,
2013-01-18 19:30:00,31.4,28.8,30.54,East,99,0.0,0.0,90,0.00,,CLR,0.30,VWS V14.01,2013-01-19 00:30:00,
2013-01-18 19:35:00,31.3,29.0,30.54,East,99,0.0,0.0,91,0.00,,CLR,0.30,VWS V14.01,2013-01-19 00:35:00,
2013-01-18 19:40:00,31.0,28.7,30.53,East,99,0.0,0.0,91,0.00,,CLR,0.30,VWS V14.01,2013-01-19 00:40:00,
2013-01-18 19:45:00,30.9,28.6,30.53,East,99,0.0,0.0,91,0.00,,CLR,0.30,VWS V14.01,2013-01-19 00:45:00,
2013-01-18 19:50:00,30.8,28.8,30.53,East,99,0.0,0.0,92,0.00,,CLR,0.30,VWS V14.01,2013-01-19 00:50:00,
2013-01-18 19:55:00,30.7,28.7,30.54,East,99,0.0,0.0,92,0.00,,CLR,0.30,VWS V14.01,2013-01-19 00:55:00,
2013-01-18 20:00:00,30.6,28.6,30.53,East,99,0.0,0.0,92,0.00,,CLR,0.30,VWS V14.01,2013-01-19 01:00:00,
2013-01-18 20:05:00,30.5,28.7,30.54,East,99,0.0,0.0,93,0.00,,CLR,0.30,VWS V14.01,2013-01-19 01:05:00,
2013-01-18 20:10:00,30.4,28.6,30.54,East,99,0.0,0.0,93,0.00,,CLR,0.30,VWS V14.01,2013-01-19 01:10:00,
2013-01-18 20:15:00,30.2,28.4,30.54,East,99,0.0,0.0,93,0.00,,CLR,0.30,VWS V14.01,2013-01-19 01:15:00,
2013-01-18 20:20:00,30.1,28.3,30.54,East,99,0.0,0.0,93,0.00,,CLR,0.30,VWS V14.01,2013-01-19 01:20:00,
2013-01-18 20:25:00,29.9,28.1,30.54,East,99,0.0,0.0,93,0.00,,CLR,0.30,VWS V14.01,2013-01-19 01:25:00,
2013-01-18 20:30:00,29.9,28.4,30.54,East,99,0.0,0.0,94,0.00,,CLR,0.30,VWS V14.01,2013-01-19 01:30:00,
2013-01-18 20:35:00,29.8,28.3,30.54,East,99,0.0,0.0,94,0.00,,CLR,0.30,VWS V14.01,2013-01-19 01:35:00,
2013-01-18 20:40:00,29.7,28.2,30.54,East,99,0.0,0.0,94,0.00,,CLR,0.30,VWS V14.01,2013-01-19 01:40:00,
2013-01-18 20:45:00,29.6,28.1,30.55,East,99,0.0,0.0,94,0.00,,CLR,0.30,VWS V14.01,2013-01-19 01:45:00,
2013-01-18 20:55:00,29.5,28.0,30.54,East,99,0.0,0.0,94,0.00,,CLR,0.30,VWS V14.01,2013-01-19 01:55:00,
2013-01-18 21:00:00,29.4,27.9,30.55,East,99,0.0,0.0,94,0.00,,CLR,0.30,VWS V14.01,2013-01-19 02:00:00,
2013-01-18 21:10:00,29.4,28.1,30.55,East,99,0.0,0.0,95,0.00,,CLR,0.30,VWS V14.01,2013-01-19 02:10:00,
2013-01-18 21:15:00,29.3,28.0,30.54,East,99,0.0,0.0,95,0.00,,CLR,0.30,VWS V14.01,2013-01-19 02:15:00,
2013-01-18 21:20:00,29.2,28.0,30.54,East,99,0.0,0.0,95,0.00,,CLR,0.30,VWS V14.01,2013-01-19 02:20:00,
2013-01-18 21:25:00,29.1,27.9,30.54,East,99,0.0,0.0,95,0.00,,CLR,0.30,VWS V14.01,2013-01-19 02:25:00,
2013-01-18 21:30:00,29.0,27.8,30.54,East,99,0.0,0.0,95,0.00,,CLR,0.30,VWS V14.01,2013-01-19 02:30:00,
2013-01-18 21:35:00,28.9,27.6,30.54,East,99,0.0,0.0,95,0.00,,CLR,0.30,VWS V14.01,2013-01-19 02:35:00,
2013-01-18 21:40:00,28.9,27.6,30.54,East,99,0.0,0.0,95,0.00,,CLR,0.30,VWS V14.01,2013-01-19 02:40:00,
2013-01-18 21:45:00,28.8,27.5,30.54,East,99,0.0,0.0,95,0.00,,CLR,0.30,VWS V14.01,2013-01-19 02:45:00,
2013-01-18 21:50:00,28.8,27.8,30.54,East,99,0.0,0.0,96,0.00,,CLR,0.30,VWS V14.01,2013-01-19 02:50:00,
2013-01-18 21:55:00,28.7,27.5,30.54,East,99,0.0,0.0,95,0.00,,CLR,0.30,VWS V14.01,2013-01-19 02:55:00,
2013-01-18 22:00:00,28.6,27.4,30.54,East,99,0.0,0.0,95,0.00,,CLR,0.30,VWS V14.01,2013-01-19 03:00:00,
2013-01-18 22:10:00,28.5,27.2,30.53,East,99,0.0,0.0,95,0.00,,CLR,0.30,VWS V14.01,2013-01-19 03:10:00,
2013-01-18 22:15:00,28.3,27.0,30.53,East,99,0.0,0.0,95,0.00,,CLR,0.30,VWS V14.01,2013-01-19 03:15:00,
2013-01-18 22:20:00,28.3,27.0,30.53,East,99,0.0,0.0,95,0.00,,CLR,0.30,VWS V14.01,2013-01-19 03:20:00,
2013-01-18 22:25:00,28.2,27.2,30.53,East,99,0.0,0.0,96,0.00,,CLR,0.30,VWS V14.01,2013-01-19 03:25:00,
2013-01-18 22:30:00,28.2,27.2,30.53,East,99,0.0,0.0,96,0.00,,CLR,0.30,VWS V14.01,2013-01-19 03:30:00,
2013-01-18 22:35:00,28.1,27.1,30.53,East,99,0.0,0.0,96,0.00,,CLR,0.30,VWS V14.01,2013-01-19 03:35:00,
2013-01-18 22:40:00,28.1,27.1,30.53,East,99,0.0,0.0,96,0.00,,CLR,0.30,VWS V14.01,2013-01-19 03:40:00,
2013-01-18 22:45:00,28.1,27.1,30.53,East,99,0.0,0.0,96,0.00,,CLR,0.30,VWS V14.01,2013-01-19 03:45:00,
2013-01-18 22:50:00,28.0,26.8,30.53,East,99,0.0,0.0,95,0.00,,CLR,0.30,VWS V14.01,2013-01-19 03:50:00,
2013-01-18 22:55:00,28.0,26.8,30.53,East,99,0.0,0.0,95,0.00,,CLR,0.30,VWS V14.01,2013-01-19 03:55:00,
2013-01-18 23:00:00,27.9,26.7,30.52,East,99,0.0,0.0,95,0.00,,CLR,0.30,VWS V14.01,2013-01-19 04:00:00,
2013-01-18 23:05:00,27.9,26.7,30.53,East,99,0.0,0.0,95,0.00,,CLR,0.30,VWS V14.01,2013-01-19 04:05:00,
2013-01-18 23:10:00,27.8,26.6,30.52,East,99,0.0,0.0,95,0.00,,CLR,0.30,VWS V14.01,2013-01-19 04:10:00,
2013-01-18 23:15:00,27.9,26.9,30.52,East,99,0.0,0.0,96,0.00,,CLR,0.30,VWS V14.01,2013-01-19 04:15:00,
2013-01-18 23:20:00,27.8,26.8,30.52,East,99,0.0,0.0,96,0.00,,CLR,0.30,VWS V14.01,2013-01-19 04:20:00,
2013-01-18 23:25:00,27.8,26.8,30.52,East,99,0.0,0.0,96,0.00,,CLR,0.30,VWS V14.01,2013-01-19 04:25:00,
2013-01-18 23:30:00,27.7,26.7,30.52,East,99,0.0,0.0,96,0.00,,CLR,0.30,VWS V14.01,2013-01-19 04:30:00,
2013-01-18 23:35:00,27.7,26.7,30.52,East,99,0.0,0.0,96,0.00,,CLR,0.30,VWS V14.01,2013-01-19 04:35:00,
2013-01-18 23:40:00,27.6,26.6,30.52,East,99,0.0,0.0,96,0.00,,CLR,0.30,VWS V14.01,2013-01-19 04:40:00,
2013-01-18 23:45:00,27.5,26.5,30.52,East,99,0.0,0.0,96,0.00,,CLR,0.30,VWS V14.01,2013-01-19 04:45:00,
2013-01-18 23:50:00,27.5,26.5,30.52,East,99,0.0,0.0,96,0.00,,CLR,0.30,VWS V14.01,2013-01-19 04:50:00,
2013-01-18 23:55:00,27.4,26.4,30.52,East,99,0.0,0.0,96,0.00,,CLR,0.30,VWS V14.01,2013-01-19 04:55:00,